Data supplied by UK-AIR on 27/3/2021
All Data GMT hour ending  NB:  Upto 20/02/2020 PM10 were measured with a TEOM FDMS, from 20/02/2020 PM10 were measured with a BAM 1020 heated
Status: R =Ratified P=Provisional,P*=As supplied
,,Southampton A33,,,,,,,,,,,,,,,,,,,,,,,
Date,time,"PM<sub>10</sub> particulate matter (Hourly measured)",status,unit,"Nitric oxide",status,unit,"Nitrogen dioxide",status,unit,"Nitrogen oxides as nitrogen dioxide",status,unit,"Non-volatile PM<sub>10</sub> (Hourly measured)",status,unit,"Volatile PM<sub>10</sub> (Hourly measured)",status,unit
 
01-01-2020,01:00,35.700,R,ugm-3 (TEOM FDMS),5.11080,R,ugm-3,23.14583,R,ugm-3,30.98228,R,ugm-3,29.200,R,ugm-3 (TEOM FDMS),6.500,R,ugm-3 (TEOM FDMS)
01-01-2020,02:00,15.800,R,ugm-3 (TEOM FDMS),6.59599,R,ugm-3,23.09981,R,ugm-3,33.21352,R,ugm-3,10.500,R,ugm-3 (TEOM FDMS),5.300,R,ugm-3 (TEOM FDMS)
01-01-2020,03:00,18.300,R,ugm-3 (TEOM FDMS),1.63808,R,ugm-3,18.62129,R,ugm-3,21.13298,R,ugm-3,13.300,R,ugm-3 (TEOM FDMS),5.000,R,ugm-3 (TEOM FDMS)
01-01-2020,04:00,29.400,R,ugm-3 (TEOM FDMS),0.36038,R,ugm-3,20.24572,R,ugm-3,20.79829,R,ugm-3,25.200,R,ugm-3 (TEOM FDMS),4.200,R,ugm-3 (TEOM FDMS)
01-01-2020,05:00,22.800,R,ugm-3 (TEOM FDMS),0.22933,R,ugm-3,14.42232,R,ugm-3,14.77396,R,ugm-3,18.400,R,ugm-3 (TEOM FDMS),4.400,R,ugm-3 (TEOM FDMS)
01-01-2020,06:00,24.100,R,ugm-3 (TEOM FDMS),0.16381,R,ugm-3,14.66623,R,ugm-3,14.91740,R,ugm-3,18.600,R,ugm-3 (TEOM FDMS),5.500,R,ugm-3 (TEOM FDMS)
01-01-2020,07:00,24.100,R,ugm-3 (TEOM FDMS),0.22933,R,ugm-3,17.91261,R,ugm-3,18.26425,R,ugm-3,19.100,R,ugm-3 (TEOM FDMS),5.000,R,ugm-3 (TEOM FDMS)
01-01-2020,08:00,24.800,R,ugm-3 (TEOM FDMS),0.42590,R,ugm-3,17.13309,R,ugm-3,17.78612,R,ugm-3,19.500,R,ugm-3 (TEOM FDMS),5.300,R,ugm-3 (TEOM FDMS)
01-01-2020,09:00,31.400,R,ugm-3 (TEOM FDMS),0.78628,R,ugm-3,18.97113,R,ugm-3,20.17673,R,ugm-3,24.400,R,ugm-3 (TEOM FDMS),7.000,R,ugm-3 (TEOM FDMS)
01-01-2020,10:00,36.500,R,ugm-3 (TEOM FDMS),8.58352,R,ugm-3,22.21979,R,ugm-3,35.38100,R,ugm-3,30.200,R,ugm-3 (TEOM FDMS),6.300,R,ugm-3 (TEOM FDMS)
01-01-2020,11:00,34.000,R,ugm-3 (TEOM FDMS),17.75675,R,ugm-3,31.43889,R,ugm-3,58.66552,R,ugm-3,27.400,R,ugm-3 (TEOM FDMS),6.600,R,ugm-3 (TEOM FDMS)
01-01-2020,12:00,32.400,R,ugm-3 (TEOM FDMS),26.66788,R,ugm-3,40.15143,R,ugm-3,81.04162,R,ugm-3,27.400,R,ugm-3 (TEOM FDMS),5.000,R,ugm-3 (TEOM FDMS)
01-01-2020,13:00,30.300,R,ugm-3 (TEOM FDMS),39.96906,R,ugm-3,52.55572,R,ugm-3,113.84076,R,ugm-3,24.000,R,ugm-3 (TEOM FDMS),6.300,R,ugm-3 (TEOM FDMS)
01-01-2020,14:00,32.600,R,ugm-3 (TEOM FDMS),43.44178,R,ugm-3,69.89392,R,ugm-3,136.50372,R,ugm-3,25.100,R,ugm-3 (TEOM FDMS),7.500,R,ugm-3 (TEOM FDMS)
01-01-2020,15:00,31.900,R,ugm-3 (TEOM FDMS),23.65382,R,ugm-3,50.60601,R,ugm-3,86.87470,R,ugm-3,24.100,R,ugm-3 (TEOM FDMS),7.800,R,ugm-3 (TEOM FDMS)
01-01-2020,16:00,22.000,R,ugm-3 (TEOM FDMS),23.42449,R,ugm-3,60.75914,R,ugm-3,96.67619,R,ugm-3,15.200,R,ugm-3 (TEOM FDMS),6.800,R,ugm-3 (TEOM FDMS)
01-01-2020,17:00,24.300,R,ugm-3 (TEOM FDMS),17.06876,R,ugm-3,43.96872,R,ugm-3,70.14044,R,ugm-3,16.500,R,ugm-3 (TEOM FDMS),7.800,R,ugm-3 (TEOM FDMS)
01-01-2020,18:00,27.200,R,ugm-3 (TEOM FDMS),46.12823,R,ugm-3,64.24477,R,ugm-3,134.97373,R,ugm-3,20.500,R,ugm-3 (TEOM FDMS),6.700,R,ugm-3 (TEOM FDMS)
01-01-2020,19:00,19.800,R,ugm-3 (TEOM FDMS),26.70064,R,ugm-3,55.44890,R,ugm-3,96.38932,R,ugm-3,14.800,R,ugm-3 (TEOM FDMS),5.000,R,ugm-3 (TEOM FDMS)
01-01-2020,20:00,16.100,R,ugm-3 (TEOM FDMS),20.37767,R,ugm-3,50.46566,R,ugm-3,81.71099,R,ugm-3,10.600,R,ugm-3 (TEOM FDMS),5.500,R,ugm-3 (TEOM FDMS)
01-01-2020,21:00,12.900,R,ugm-3 (TEOM FDMS),11.89243,R,ugm-3,35.93637,R,ugm-3,54.17118,R,ugm-3,8.000,R,ugm-3 (TEOM FDMS),4.900,R,ugm-3 (TEOM FDMS)
01-01-2020,22:00,12.200,R,ugm-3 (TEOM FDMS),9.07494,R,ugm-3,32.51089,R,ugm-3,46.42561,R,ugm-3,7.400,R,ugm-3 (TEOM FDMS),4.800,R,ugm-3 (TEOM FDMS)
01-01-2020,23:00,13.000,R,ugm-3 (TEOM FDMS),15.07030,R,ugm-3,39.38302,R,ugm-3,62.49050,R,ugm-3,8.500,R,ugm-3 (TEOM FDMS),4.500,R,ugm-3 (TEOM FDMS)
01-01-2020,24:00,12.300,R,ugm-3 (TEOM FDMS),7.24030,R,ugm-3,36.42365,R,ugm-3,47.52529,R,ugm-3,7.500,R,ugm-3 (TEOM FDMS),4.800,R,ugm-3 (TEOM FDMS)
02-01-2020,01:00,14.600,R,ugm-3 (TEOM FDMS),9.30753,R,ugm-3,39.57425,R,ugm-3,53.84559,R,ugm-3,9.100,R,ugm-3 (TEOM FDMS),5.500,R,ugm-3 (TEOM FDMS)
02-01-2020,02:00,13.900,R,ugm-3 (TEOM FDMS),6.68569,R,ugm-3,35.50157,R,ugm-3,45.75282,R,ugm-3,8.800,R,ugm-3 (TEOM FDMS),5.100,R,ugm-3 (TEOM FDMS)
02-01-2020,03:00,11.500,R,ugm-3 (TEOM FDMS),8.55375,R,ugm-3,36.20572,R,ugm-3,49.32129,R,ugm-3,7.200,R,ugm-3 (TEOM FDMS),4.300,R,ugm-3 (TEOM FDMS)
02-01-2020,04:00,11.800,R,ugm-3 (TEOM FDMS),11.04450,R,ugm-3,46.34188,R,ugm-3,63.27654,R,ugm-3,6.400,R,ugm-3 (TEOM FDMS),5.400,R,ugm-3 (TEOM FDMS)
02-01-2020,05:00,8.300,R,ugm-3 (TEOM FDMS),14.81339,R,ugm-3,38.03001,R,ugm-3,60.74356,R,ugm-3,2.500,R,ugm-3 (TEOM FDMS),5.800,R,ugm-3 (TEOM FDMS)
02-01-2020,06:00,5.400,R,ugm-3 (TEOM FDMS),22.35118,R,ugm-3,35.07478,R,ugm-3,69.34611,R,ugm-3,0.800,R,ugm-3 (TEOM FDMS),4.600,R,ugm-3 (TEOM FDMS)
02-01-2020,07:00,5.900,R,ugm-3 (TEOM FDMS),49.09394,R,ugm-3,62.50786,R,ugm-3,137.78418,R,ugm-3,3.000,R,ugm-3 (TEOM FDMS),2.900,R,ugm-3 (TEOM FDMS)
02-01-2020,08:00,13.000,R,ugm-3 (TEOM FDMS),94.55007,R,ugm-3,73.86456,R,ugm-3,218.83931,R,ugm-3,8.900,R,ugm-3 (TEOM FDMS),4.100,R,ugm-3 (TEOM FDMS)
02-01-2020,09:00,10.200,R,ugm-3 (TEOM FDMS),59.58129,R,ugm-3,68.26839,R,ugm-3,159.62509,R,ugm-3,7.300,R,ugm-3 (TEOM FDMS),2.900,R,ugm-3 (TEOM FDMS)
02-01-2020,10:00,11.300,R,ugm-3 (TEOM FDMS),71.74007,R,ugm-3,66.78249,R,ugm-3,176.78240,R,ugm-3,9.500,R,ugm-3 (TEOM FDMS),1.800,R,ugm-3 (TEOM FDMS)
02-01-2020,11:00,10.900,R,ugm-3 (TEOM FDMS),47.61915,R,ugm-3,41.06436,R,ugm-3,114.07937,R,ugm-3,7.400,R,ugm-3 (TEOM FDMS),3.500,R,ugm-3 (TEOM FDMS)
02-01-2020,12:00,10.900,R,ugm-3 (TEOM FDMS),,,,,,,,,,6.800,R,ugm-3 (TEOM FDMS),4.100,R,ugm-3 (TEOM FDMS)
02-01-2020,13:00,13.500,R,ugm-3 (TEOM FDMS),28.97132,R,ugm-3,28.03051,R,ugm-3,72.45259,R,ugm-3,6.100,R,ugm-3 (TEOM FDMS),7.400,R,ugm-3 (TEOM FDMS)
02-01-2020,14:00,13.900,R,ugm-3 (TEOM FDMS),33.95282,R,ugm-3,32.00577,R,ugm-3,84.06603,R,ugm-3,11.400,R,ugm-3 (TEOM FDMS),2.500,R,ugm-3 (TEOM FDMS)
02-01-2020,15:00,11.600,R,ugm-3 (TEOM FDMS),34.08391,R,ugm-3,40.55069,R,ugm-3,92.81196,R,ugm-3,7.300,R,ugm-3 (TEOM FDMS),4.300,R,ugm-3 (TEOM FDMS)
02-01-2020,16:00,7.100,R,ugm-3 (TEOM FDMS),42.67043,R,ugm-3,41.10116,R,ugm-3,106.52825,R,ugm-3,5.800,R,ugm-3 (TEOM FDMS),1.300,R,ugm-3 (TEOM FDMS)
02-01-2020,17:00,7.700,R,ugm-3 (TEOM FDMS),46.27546,R,ugm-3,41.78648,R,ugm-3,112.74120,R,ugm-3,4.700,R,ugm-3 (TEOM FDMS),3.000,R,ugm-3 (TEOM FDMS)
02-01-2020,18:00,7.900,R,ugm-3 (TEOM FDMS),34.01836,R,ugm-3,35.10733,R,ugm-3,87.26809,R,ugm-3,4.100,R,ugm-3 (TEOM FDMS),3.800,R,ugm-3 (TEOM FDMS)
02-01-2020,19:00,13.200,R,ugm-3 (TEOM FDMS),15.17389,R,ugm-3,22.61396,R,ugm-3,45.88027,R,ugm-3,10.600,R,ugm-3 (TEOM FDMS),2.600,R,ugm-3 (TEOM FDMS)
02-01-2020,20:00,13.000,R,ugm-3 (TEOM FDMS),12.02769,R,ugm-3,16.82826,R,ugm-3,35.27046,R,ugm-3,7.700,R,ugm-3 (TEOM FDMS),5.300,R,ugm-3 (TEOM FDMS)
02-01-2020,21:00,13.500,R,ugm-3 (TEOM FDMS),7.30838,R,ugm-3,13.02450,R,ugm-3,24.23052,R,ugm-3,9.000,R,ugm-3 (TEOM FDMS),4.500,R,ugm-3 (TEOM FDMS)
02-01-2020,22:00,16.700,R,ugm-3 (TEOM FDMS),5.86637,R,ugm-3,9.21376,R,ugm-3,18.20873,R,ugm-3,14.600,R,ugm-3 (TEOM FDMS),2.100,R,ugm-3 (TEOM FDMS)
02-01-2020,23:00,16.600,R,ugm-3 (TEOM FDMS),2.78570,R,ugm-3,5.09587,R,ugm-3,9.36722,R,ugm-3,11.400,R,ugm-3 (TEOM FDMS),5.200,R,ugm-3 (TEOM FDMS)
02-01-2020,24:00,15.700,R,ugm-3 (TEOM FDMS),1.86806,R,ugm-3,3.20526,R,ugm-3,6.06958,R,ugm-3,12.100,R,ugm-3 (TEOM FDMS),3.600,R,ugm-3 (TEOM FDMS)
03-01-2020,01:00,19.300,R,ugm-3 (TEOM FDMS),1.26746,R,ugm-3,2.71095,R,ugm-3,4.65436,R,ugm-3,16.000,R,ugm-3 (TEOM FDMS),3.300,R,ugm-3 (TEOM FDMS)
03-01-2020,02:00,7.200,R,ugm-3 (TEOM FDMS),0.34964,R,ugm-3,2.01422,R,ugm-3,2.55033,R,ugm-3,0.100,R,ugm-3 (TEOM FDMS),7.100,R,ugm-3 (TEOM FDMS)
03-01-2020,03:00,6.700,R,ugm-3 (TEOM FDMS),3.37625,R,ugm-3,1.46997,R,ugm-3,6.64681,R,ugm-3,8.700,R,ugm-3 (TEOM FDMS),-2.000,R,ugm-3 (TEOM FDMS)
03-01-2020,04:00,6.900,R,ugm-3 (TEOM FDMS),3.14679,R,ugm-3,2.87381,R,ugm-3,7.69882,R,ugm-3,3.500,R,ugm-3 (TEOM FDMS),3.400,R,ugm-3 (TEOM FDMS)
03-01-2020,05:00,7.100,R,ugm-3 (TEOM FDMS),5.83468,R,ugm-3,7.50327,R,ugm-3,16.44965,R,ugm-3,7.400,R,ugm-3 (TEOM FDMS),-0.300,R,ugm-3 (TEOM FDMS)
03-01-2020,06:00,11.300,R,ugm-3 (TEOM FDMS),19.73301,R,ugm-3,22.10467,R,ugm-3,52.36153,R,ugm-3,10.500,R,ugm-3 (TEOM FDMS),0.800,R,ugm-3 (TEOM FDMS)
03-01-2020,07:00,11.500,R,ugm-3 (TEOM FDMS),20.32303,R,ugm-3,25.69494,R,ugm-3,56.85649,R,ugm-3,9.200,R,ugm-3 (TEOM FDMS),2.300,R,ugm-3 (TEOM FDMS)
03-01-2020,08:00,9.900,R,ugm-3 (TEOM FDMS),40.77718,R,ugm-3,42.24674,R,ugm-3,104.77087,R,ugm-3,11.100,R,ugm-3 (TEOM FDMS),-1.200,R,ugm-3 (TEOM FDMS)
03-01-2020,09:00,9.900,R,ugm-3 (TEOM FDMS),44.54677,R,ugm-3,51.09931,R,ugm-3,119.40340,R,ugm-3,9.600,R,ugm-3 (TEOM FDMS),0.300,R,ugm-3 (TEOM FDMS)
03-01-2020,10:00,4.900,R,ugm-3 (TEOM FDMS),15.37339,R,ugm-3,21.56869,R,ugm-3,45.14089,R,ugm-3,1.900,R,ugm-3 (TEOM FDMS),3.000,R,ugm-3 (TEOM FDMS)
03-01-2020,11:00,8.600,R,ugm-3 (TEOM FDMS),1.21283,R,ugm-3,8.13448,R,ugm-3,9.99412,R,ugm-3,5.300,R,ugm-3 (TEOM FDMS),3.300,R,ugm-3 (TEOM FDMS)
03-01-2020,12:00,7.600,R,ugm-3 (TEOM FDMS),0.98337,R,ugm-3,9.01231,R,ugm-3,10.52012,R,ugm-3,8.200,R,ugm-3 (TEOM FDMS),-0.600,R,ugm-3 (TEOM FDMS)
03-01-2020,13:00,9.100,R,ugm-3 (TEOM FDMS),1.67173,R,ugm-3,8.86539,R,ugm-3,11.42868,R,ugm-3,10.300,R,ugm-3 (TEOM FDMS),-1.200,R,ugm-3 (TEOM FDMS)
03-01-2020,14:00,10.700,R,ugm-3 (TEOM FDMS),2.26176,R,ugm-3,9.44308,R,ugm-3,12.91106,R,ugm-3,10.100,R,ugm-3 (TEOM FDMS),0.600,R,ugm-3 (TEOM FDMS)
03-01-2020,15:00,7.200,R,ugm-3 (TEOM FDMS),1.34394,R,ugm-3,8.12471,R,ugm-3,10.18539,R,ugm-3,6.000,R,ugm-3 (TEOM FDMS),1.200,R,ugm-3 (TEOM FDMS)
03-01-2020,16:00,10.500,R,ugm-3 (TEOM FDMS),16.35676,R,ugm-3,30.48536,R,ugm-3,55.56538,R,ugm-3,8.400,R,ugm-3 (TEOM FDMS),2.100,R,ugm-3 (TEOM FDMS)
03-01-2020,17:00,10.800,R,ugm-3 (TEOM FDMS),48.48026,R,ugm-3,61.37423,R,ugm-3,135.70959,R,ugm-3,8.600,R,ugm-3 (TEOM FDMS),2.200,R,ugm-3 (TEOM FDMS)
03-01-2020,18:00,14.900,R,ugm-3 (TEOM FDMS),65.42704,R,ugm-3,74.02707,R,ugm-3,174.34714,R,ugm-3,13.200,R,ugm-3 (TEOM FDMS),1.700,R,ugm-3 (TEOM FDMS)
03-01-2020,19:00,18.600,R,ugm-3 (TEOM FDMS),64.27978,R,ugm-3,72.53452,R,ugm-3,171.09547,R,ugm-3,16.100,R,ugm-3 (TEOM FDMS),2.500,R,ugm-3 (TEOM FDMS)
03-01-2020,20:00,16.800,R,ugm-3 (TEOM FDMS),41.59665,R,ugm-3,65.37778,R,ugm-3,129.15843,R,ugm-3,15.600,R,ugm-3 (TEOM FDMS),1.200,R,ugm-3 (TEOM FDMS)
03-01-2020,21:00,20.700,R,ugm-3 (TEOM FDMS),41.99000,R,ugm-3,64.91811,R,ugm-3,129.30188,R,ugm-3,18.300,R,ugm-3 (TEOM FDMS),2.400,R,ugm-3 (TEOM FDMS)
03-01-2020,22:00,21.200,R,ugm-3 (TEOM FDMS),26.87885,R,ugm-3,55.76276,R,ugm-3,96.97641,R,ugm-3,20.400,R,ugm-3 (TEOM FDMS),0.800,R,ugm-3 (TEOM FDMS)
03-01-2020,23:00,19.400,R,ugm-3 (TEOM FDMS),17.56959,R,ugm-3,41.20205,R,ugm-3,68.14171,R,ugm-3,15.400,R,ugm-3 (TEOM FDMS),4.000,R,ugm-3 (TEOM FDMS)
03-01-2020,24:00,13.300,R,ugm-3 (TEOM FDMS),15.96341,R,ugm-3,43.66482,R,ugm-3,68.14171,R,ugm-3,11.800,R,ugm-3 (TEOM FDMS),1.500,R,ugm-3 (TEOM FDMS)
04-01-2020,01:00,14.400,R,ugm-3 (TEOM FDMS),7.16903,R,ugm-3,33.85487,R,ugm-3,44.84722,R,ugm-3,12.500,R,ugm-3 (TEOM FDMS),1.900,R,ugm-3 (TEOM FDMS)
04-01-2020,02:00,15.500,R,ugm-3 (TEOM FDMS),7.99958,R,ugm-3,27.54164,R,ugm-3,39.80749,R,ugm-3,13.400,R,ugm-3 (TEOM FDMS),2.100,R,ugm-3 (TEOM FDMS)
04-01-2020,03:00,10.900,R,ugm-3 (TEOM FDMS),8.88478,R,ugm-3,28.24171,R,ugm-3,41.86485,R,ugm-3,9.400,R,ugm-3 (TEOM FDMS),1.500,R,ugm-3 (TEOM FDMS)
04-01-2020,04:00,10.600,R,ugm-3 (TEOM FDMS),3.14738,R,ugm-3,16.03475,R,ugm-3,20.86066,R,ugm-3,9.600,R,ugm-3 (TEOM FDMS),1.000,R,ugm-3 (TEOM FDMS)
04-01-2020,05:00,7.700,R,ugm-3 (TEOM FDMS),16.65487,R,ugm-3,33.98275,R,ugm-3,59.51986,R,ugm-3,8.000,R,ugm-3 (TEOM FDMS),-0.300,R,ugm-3 (TEOM FDMS)
04-01-2020,06:00,10.200,R,ugm-3 (TEOM FDMS),10.49126,R,ugm-3,21.71161,R,ugm-3,37.79798,R,ugm-3,9.500,R,ugm-3 (TEOM FDMS),0.700,R,ugm-3 (TEOM FDMS)
04-01-2020,07:00,11.200,R,ugm-3 (TEOM FDMS),15.93359,R,ugm-3,26.38080,R,ugm-3,50.81197,R,ugm-3,8.800,R,ugm-3 (TEOM FDMS),2.400,R,ugm-3 (TEOM FDMS)
04-01-2020,08:00,11.000,R,ugm-3 (TEOM FDMS),21.70379,R,ugm-3,38.87241,R,ugm-3,72.15108,R,ugm-3,11.400,R,ugm-3 (TEOM FDMS),-0.400,R,ugm-3 (TEOM FDMS)
04-01-2020,09:00,13.300,R,ugm-3 (TEOM FDMS),37.86688,R,ugm-3,48.53814,R,ugm-3,106.59987,R,ugm-3,12.900,R,ugm-3 (TEOM FDMS),0.400,R,ugm-3 (TEOM FDMS)
04-01-2020,10:00,13.500,R,ugm-3 (TEOM FDMS),39.80120,R,ugm-3,43.61055,R,ugm-3,104.63820,R,ugm-3,14.100,R,ugm-3 (TEOM FDMS),-0.600,R,ugm-3 (TEOM FDMS)
04-01-2020,11:00,15.800,R,ugm-3 (TEOM FDMS),44.71898,R,ugm-3,51.14141,R,ugm-3,119.70955,R,ugm-3,16.000,R,ugm-3 (TEOM FDMS),-0.200,R,ugm-3 (TEOM FDMS)
04-01-2020,12:00,13.300,R,ugm-3 (TEOM FDMS),51.37437,R,ugm-3,54.47691,R,ugm-3,133.24984,R,ugm-3,13.700,R,ugm-3 (TEOM FDMS),-0.400,R,ugm-3 (TEOM FDMS)
04-01-2020,13:00,10.700,R,ugm-3 (TEOM FDMS),51.21044,R,ugm-3,49.36956,R,ugm-3,127.89114,R,ugm-3,10.500,R,ugm-3 (TEOM FDMS),0.200,R,ugm-3 (TEOM FDMS)
04-01-2020,14:00,13.600,R,ugm-3 (TEOM FDMS),52.68577,R,ugm-3,53.23164,R,ugm-3,134.01537,R,ugm-3,12.500,R,ugm-3 (TEOM FDMS),1.100,R,ugm-3 (TEOM FDMS)
04-01-2020,15:00,8.900,R,ugm-3 (TEOM FDMS),39.04714,R,ugm-3,46.44135,R,ugm-3,106.31280,R,ugm-3,9.500,R,ugm-3 (TEOM FDMS),-0.600,R,ugm-3 (TEOM FDMS)
04-01-2020,16:00,12.800,R,ugm-3 (TEOM FDMS),48.09585,R,ugm-3,55.86764,R,ugm-3,129.61358,R,ugm-3,12.000,R,ugm-3 (TEOM FDMS),0.800,R,ugm-3 (TEOM FDMS)
04-01-2020,17:00,13.300,R,ugm-3 (TEOM FDMS),44.85012,R,ugm-3,58.54777,R,ugm-3,127.31699,R,ugm-3,12.500,R,ugm-3 (TEOM FDMS),0.800,R,ugm-3 (TEOM FDMS)
04-01-2020,18:00,19.000,R,ugm-3 (TEOM FDMS),44.88290,R,ugm-3,58.64104,R,ugm-3,127.46053,R,ugm-3,16.800,R,ugm-3 (TEOM FDMS),2.200,R,ugm-3 (TEOM FDMS)
04-01-2020,19:00,22.000,R,ugm-3 (TEOM FDMS),36.06369,R,ugm-3,53.55172,R,ugm-3,108.84861,R,ugm-3,18.200,R,ugm-3 (TEOM FDMS),3.800,R,ugm-3 (TEOM FDMS)
04-01-2020,20:00,16.300,R,ugm-3 (TEOM FDMS),20.13010,R,ugm-3,39.51508,R,ugm-3,70.38079,R,ugm-3,13.100,R,ugm-3 (TEOM FDMS),3.200,R,ugm-3 (TEOM FDMS)
04-01-2020,21:00,10.200,R,ugm-3 (TEOM FDMS),14.55662,R,ugm-3,27.43953,R,ugm-3,49.75937,R,ugm-3,7.700,R,ugm-3 (TEOM FDMS),2.500,R,ugm-3 (TEOM FDMS)
04-01-2020,22:00,14.500,R,ugm-3 (TEOM FDMS),13.63863,R,ugm-3,35.21054,R,ugm-3,56.12282,R,ugm-3,11.700,R,ugm-3 (TEOM FDMS),2.800,R,ugm-3 (TEOM FDMS)
04-01-2020,23:00,5.700,R,ugm-3 (TEOM FDMS),9.99948,R,ugm-3,24.42733,R,ugm-3,39.75965,R,ugm-3,4.200,R,ugm-3 (TEOM FDMS),1.500,R,ugm-3 (TEOM FDMS)
04-01-2020,24:00,8.100,R,ugm-3 (TEOM FDMS),11.24532,R,ugm-3,26.67963,R,ugm-3,43.92221,R,ugm-3,4.800,R,ugm-3 (TEOM FDMS),3.300,R,ugm-3 (TEOM FDMS)
05-01-2020,01:00,5.100,R,ugm-3 (TEOM FDMS),4.76566,R,ugm-3,22.30977,R,ugm-3,29.61702,R,ugm-3,3.000,R,ugm-3 (TEOM FDMS),2.100,R,ugm-3 (TEOM FDMS)
05-01-2020,02:00,8.100,R,ugm-3 (TEOM FDMS),4.15356,R,ugm-3,14.75896,R,ugm-3,21.12766,R,ugm-3,5.100,R,ugm-3 (TEOM FDMS),3.000,R,ugm-3 (TEOM FDMS)
05-01-2020,03:00,4.200,R,ugm-3 (TEOM FDMS),2.49214,R,ugm-3,7.95538,R,ugm-3,11.77660,R,ugm-3,1.600,R,ugm-3 (TEOM FDMS),2.600,R,ugm-3 (TEOM FDMS)
05-01-2020,04:00,3.900,R,ugm-3 (TEOM FDMS),2.42655,R,ugm-3,8.91764,R,ugm-3,12.63830,R,ugm-3,1.600,R,ugm-3 (TEOM FDMS),2.300,R,ugm-3 (TEOM FDMS)
05-01-2020,05:00,3.600,R,ugm-3 (TEOM FDMS),4.13170,R,ugm-3,10.42014,R,ugm-3,16.75532,R,ugm-3,0.700,R,ugm-3 (TEOM FDMS),2.900,R,ugm-3 (TEOM FDMS)
05-01-2020,06:00,0.400,R,ugm-3 (TEOM FDMS),2.52493,R,ugm-3,6.56467,R,ugm-3,10.43617,R,ugm-3,-0.900,R,ugm-3 (TEOM FDMS),1.300,R,ugm-3 (TEOM FDMS)
05-01-2020,07:00,2.600,R,ugm-3 (TEOM FDMS),7.24687,R,ugm-3,16.03191,R,ugm-3,27.14362,R,ugm-3,1.400,R,ugm-3 (TEOM FDMS),1.200,R,ugm-3 (TEOM FDMS)
05-01-2020,08:00,4.600,R,ugm-3 (TEOM FDMS),12.13277,R,ugm-3,33.48179,R,ugm-3,52.08511,R,ugm-3,2.800,R,ugm-3 (TEOM FDMS),1.800,R,ugm-3 (TEOM FDMS)
05-01-2020,09:00,4.900,R,ugm-3 (TEOM FDMS),12.55906,R,ugm-3,32.25369,R,ugm-3,51.51064,R,ugm-3,4.500,R,ugm-3 (TEOM FDMS),0.400,R,ugm-3 (TEOM FDMS)
05-01-2020,10:00,6.600,R,ugm-3 (TEOM FDMS),15.80539,R,ugm-3,33.35583,R,ugm-3,57.59043,R,ugm-3,6.300,R,ugm-3 (TEOM FDMS),0.300,R,ugm-3 (TEOM FDMS)
05-01-2020,11:00,9.600,R,ugm-3 (TEOM FDMS),23.08505,R,ugm-3,34.78427,R,ugm-3,70.18086,R,ugm-3,8.100,R,ugm-3 (TEOM FDMS),1.500,R,ugm-3 (TEOM FDMS)
05-01-2020,12:00,11.800,R,ugm-3 (TEOM FDMS),37.05413,R,ugm-3,49.74829,R,ugm-3,106.56383,R,ugm-3,12.400,R,ugm-3 (TEOM FDMS),-0.600,R,ugm-3 (TEOM FDMS)
05-01-2020,13:00,12.200,R,ugm-3 (TEOM FDMS),34.69316,R,ugm-3,49.25138,R,ugm-3,102.44681,R,ugm-3,6.500,R,ugm-3 (TEOM FDMS),5.700,R,ugm-3 (TEOM FDMS)
05-01-2020,14:00,9.600,R,ugm-3 (TEOM FDMS),35.67690,R,ugm-3,41.71109,R,ugm-3,96.41490,R,ugm-3,8.600,R,ugm-3 (TEOM FDMS),1.000,R,ugm-3 (TEOM FDMS)
05-01-2020,15:00,9.400,R,ugm-3 (TEOM FDMS),31.80753,R,ugm-3,46.01638,R,ugm-3,94.78724,R,ugm-3,8.100,R,ugm-3 (TEOM FDMS),1.300,R,ugm-3 (TEOM FDMS)
05-01-2020,16:00,10.700,R,ugm-3 (TEOM FDMS),23.31459,R,ugm-3,37.83125,R,ugm-3,73.57979,R,ugm-3,9.300,R,ugm-3 (TEOM FDMS),1.400,R,ugm-3 (TEOM FDMS)
05-01-2020,17:00,8.900,R,ugm-3 (TEOM FDMS),22.03573,R,ugm-3,38.78682,R,ugm-3,72.57447,R,ugm-3,6.400,R,ugm-3 (TEOM FDMS),2.500,R,ugm-3 (TEOM FDMS)
05-01-2020,18:00,7.300,R,ugm-3 (TEOM FDMS),20.46175,R,ugm-3,46.70555,R,ugm-3,78.07979,R,ugm-3,5.300,R,ugm-3 (TEOM FDMS),2.000,R,ugm-3 (TEOM FDMS)
05-01-2020,19:00,13.100,R,ugm-3 (TEOM FDMS),18.36311,R,ugm-3,47.86491,R,ugm-3,76.02128,R,ugm-3,9.900,R,ugm-3 (TEOM FDMS),3.200,R,ugm-3 (TEOM FDMS)
05-01-2020,20:00,17.000,R,ugm-3 (TEOM FDMS),29.41377,R,ugm-3,57.39421,R,ugm-3,102.49469,R,ugm-3,13.800,R,ugm-3 (TEOM FDMS),3.200,R,ugm-3 (TEOM FDMS)
05-01-2020,21:00,13.000,R,ugm-3 (TEOM FDMS),14.39537,R,ugm-3,31.35295,R,ugm-3,53.42554,R,ugm-3,8.900,R,ugm-3 (TEOM FDMS),4.100,R,ugm-3 (TEOM FDMS)
05-01-2020,22:00,9.700,R,ugm-3 (TEOM FDMS),3.11517,R,ugm-3,10.35113,R,ugm-3,15.12766,R,ugm-3,6.900,R,ugm-3 (TEOM FDMS),2.800,R,ugm-3 (TEOM FDMS)
05-01-2020,23:00,6.600,R,ugm-3 (TEOM FDMS),3.18075,R,ugm-3,13.12292,R,ugm-3,18.00000,R,ugm-3,3.300,R,ugm-3 (TEOM FDMS),3.300,R,ugm-3 (TEOM FDMS)
05-01-2020,24:00,7.200,R,ugm-3 (TEOM FDMS),1.41002,R,ugm-3,5.59331,R,ugm-3,7.75532,R,ugm-3,4.500,R,ugm-3 (TEOM FDMS),2.700,R,ugm-3 (TEOM FDMS)
06-01-2020,01:00,10.500,R,ugm-3 (TEOM FDMS),1.66173,R,ugm-3,4.98818,R,ugm-3,7.53613,R,ugm-3,5.000,R,ugm-3 (TEOM FDMS),5.500,R,ugm-3 (TEOM FDMS)
06-01-2020,02:00,8.800,R,ugm-3 (TEOM FDMS),4.28552,R,ugm-3,17.25080,R,ugm-3,23.82184,R,ugm-3,3.900,R,ugm-3 (TEOM FDMS),4.900,R,ugm-3 (TEOM FDMS)
06-01-2020,03:00,9.900,R,ugm-3 (TEOM FDMS),3.18134,R,ugm-3,15.43124,R,ugm-3,20.30924,R,ugm-3,7.500,R,ugm-3 (TEOM FDMS),2.400,R,ugm-3 (TEOM FDMS)
06-01-2020,04:00,11.500,R,ugm-3 (TEOM FDMS),5.67394,R,ugm-3,15.34545,R,ugm-3,24.04537,R,ugm-3,8.900,R,ugm-3 (TEOM FDMS),2.600,R,ugm-3 (TEOM FDMS)
06-01-2020,05:00,11.800,R,ugm-3 (TEOM FDMS),9.34725,R,ugm-3,16.03581,R,ugm-3,30.36806,R,ugm-3,8.400,R,ugm-3 (TEOM FDMS),3.400,R,ugm-3 (TEOM FDMS)
06-01-2020,06:00,13.600,R,ugm-3 (TEOM FDMS),20.00639,R,ugm-3,27.47352,R,ugm-3,58.14956,R,ugm-3,9.900,R,ugm-3 (TEOM FDMS),3.700,R,ugm-3 (TEOM FDMS)
06-01-2020,07:00,11.500,R,ugm-3 (TEOM FDMS),34.86359,R,ugm-3,38.60539,R,ugm-3,92.06215,R,ugm-3,8.100,R,ugm-3 (TEOM FDMS),3.400,R,ugm-3 (TEOM FDMS)
06-01-2020,08:00,12.100,R,ugm-3 (TEOM FDMS),58.96965,R,ugm-3,47.38696,R,ugm-3,137.80583,R,ugm-3,9.600,R,ugm-3 (TEOM FDMS),2.500,R,ugm-3 (TEOM FDMS)
06-01-2020,09:00,15.700,R,ugm-3 (TEOM FDMS),68.57928,R,ugm-3,62.87677,R,ugm-3,168.03019,R,ugm-3,12.500,R,ugm-3 (TEOM FDMS),3.200,R,ugm-3 (TEOM FDMS)
06-01-2020,10:00,15.000,R,ugm-3 (TEOM FDMS),48.67128,R,ugm-3,34.62969,R,ugm-3,109.25794,R,ugm-3,10.900,R,ugm-3 (TEOM FDMS),4.100,R,ugm-3 (TEOM FDMS)
06-01-2020,11:00,15.100,R,ugm-3 (TEOM FDMS),33.35491,R,ugm-3,34.83547,R,ugm-3,85.97896,R,ugm-3,14.900,R,ugm-3 (TEOM FDMS),0.200,R,ugm-3 (TEOM FDMS)
06-01-2020,12:00,15.700,R,ugm-3 (TEOM FDMS),37.22500,R,ugm-3,29.09302,R,ugm-3,86.17056,R,ugm-3,12.500,R,ugm-3 (TEOM FDMS),3.200,R,ugm-3 (TEOM FDMS)
06-01-2020,13:00,15.600,R,ugm-3 (TEOM FDMS),48.08093,R,ugm-3,38.07354,R,ugm-3,111.79660,R,ugm-3,13.700,R,ugm-3 (TEOM FDMS),1.900,R,ugm-3 (TEOM FDMS)
06-01-2020,14:00,14.400,R,ugm-3 (TEOM FDMS),42.24300,R,ugm-3,41.61230,R,ugm-3,106.38399,R,ugm-3,14.900,R,ugm-3 (TEOM FDMS),-0.500,R,ugm-3 (TEOM FDMS)
06-01-2020,15:00,16.800,R,ugm-3 (TEOM FDMS),42.30859,R,ugm-3,42.18231,R,ugm-3,107.05458,R,ugm-3,14.900,R,ugm-3 (TEOM FDMS),1.900,R,ugm-3 (TEOM FDMS)
06-01-2020,16:00,16.500,R,ugm-3 (TEOM FDMS),39.22564,R,ugm-3,37.85650,R,ugm-3,98.00165,R,ugm-3,12.800,R,ugm-3 (TEOM FDMS),3.700,R,ugm-3 (TEOM FDMS)
06-01-2020,17:00,4.800,R,ugm-3 (TEOM FDMS),42.89895,R,ugm-3,41.80401,R,ugm-3,107.58147,R,ugm-3,4.600,R,ugm-3 (TEOM FDMS),0.200,R,ugm-3 (TEOM FDMS)
06-01-2020,18:00,11.400,R,ugm-3 (TEOM FDMS),63.79086,R,ugm-3,62.45924,R,ugm-3,160.27053,R,ugm-3,11.300,R,ugm-3 (TEOM FDMS),0.100,R,ugm-3 (TEOM FDMS)
06-01-2020,19:00,11.100,R,ugm-3 (TEOM FDMS),55.68991,R,ugm-3,63.62422,R,ugm-3,149.01423,R,ugm-3,10.500,R,ugm-3 (TEOM FDMS),0.600,R,ugm-3 (TEOM FDMS)
06-01-2020,20:00,16.200,R,ugm-3 (TEOM FDMS),28.79608,R,ugm-3,44.02895,R,ugm-3,88.18232,R,ugm-3,12.600,R,ugm-3 (TEOM FDMS),3.600,R,ugm-3 (TEOM FDMS)
06-01-2020,21:00,21.200,R,ugm-3 (TEOM FDMS),22.63018,R,ugm-3,44.90925,R,ugm-3,79.60838,R,ugm-3,19.000,R,ugm-3 (TEOM FDMS),2.200,R,ugm-3 (TEOM FDMS)
06-01-2020,22:00,21.800,R,ugm-3 (TEOM FDMS),22.03983,R,ugm-3,37.04890,R,ugm-3,70.84283,R,ugm-3,18.500,R,ugm-3 (TEOM FDMS),3.300,R,ugm-3 (TEOM FDMS)
06-01-2020,23:00,21.100,R,ugm-3 (TEOM FDMS),28.04174,R,ugm-3,49.68810,R,ugm-3,92.68484,R,ugm-3,17.200,R,ugm-3 (TEOM FDMS),3.900,R,ugm-3 (TEOM FDMS)
06-01-2020,24:00,17.000,R,ugm-3 (TEOM FDMS),19.67842,R,ugm-3,40.86128,R,ugm-3,71.03443,R,ugm-3,14.300,R,ugm-3 (TEOM FDMS),2.700,R,ugm-3 (TEOM FDMS)
07-01-2020,01:00,11.700,R,ugm-3 (TEOM FDMS),9.57861,R,ugm-3,20.26699,R,ugm-3,34.95399,R,ugm-3,10.300,R,ugm-3 (TEOM FDMS),1.400,R,ugm-3 (TEOM FDMS)
07-01-2020,02:00,15.100,R,ugm-3 (TEOM FDMS),6.03584,R,ugm-3,29.85275,R,ugm-3,39.10757,R,ugm-3,12.900,R,ugm-3 (TEOM FDMS),2.200,R,ugm-3 (TEOM FDMS)
07-01-2020,03:00,14.000,R,ugm-3 (TEOM FDMS),15.71285,R,ugm-3,36.67739,R,ugm-3,60.77009,R,ugm-3,12.500,R,ugm-3 (TEOM FDMS),1.500,R,ugm-3 (TEOM FDMS)
07-01-2020,04:00,12.100,R,ugm-3 (TEOM FDMS),19.84609,R,ugm-3,34.36563,R,ugm-3,64.79587,R,ugm-3,12.000,R,ugm-3 (TEOM FDMS),0.100,R,ugm-3 (TEOM FDMS)
07-01-2020,05:00,14.500,R,ugm-3 (TEOM FDMS),26.89883,R,ugm-3,36.58743,R,ugm-3,77.83173,R,ugm-3,14.500,R,ugm-3 (TEOM FDMS),0.000,R,ugm-3 (TEOM FDMS)
07-01-2020,06:00,22.000,R,ugm-3 (TEOM FDMS),41.52917,R,ugm-3,44.63546,R,ugm-3,108.31263,R,ugm-3,19.300,R,ugm-3 (TEOM FDMS),2.700,R,ugm-3 (TEOM FDMS)
07-01-2020,07:00,26.100,R,ugm-3 (TEOM FDMS),72.33161,R,ugm-3,64.69373,R,ugm-3,175.60065,R,ugm-3,26.900,R,ugm-3 (TEOM FDMS),-0.800,R,ugm-3 (TEOM FDMS)
07-01-2020,08:00,22.300,R,ugm-3 (TEOM FDMS),59.34144,R,ugm-3,60.84044,R,ugm-3,151.82938,R,ugm-3,23.800,R,ugm-3 (TEOM FDMS),-1.500,R,ugm-3 (TEOM FDMS)
07-01-2020,09:00,26.700,R,ugm-3 (TEOM FDMS),69.96976,R,ugm-3,53.45814,R,ugm-3,160.74361,R,ugm-3,27.600,R,ugm-3 (TEOM FDMS),-0.900,R,ugm-3 (TEOM FDMS)
07-01-2020,10:00,27.100,R,ugm-3 (TEOM FDMS),50.84535,R,ugm-3,48.22722,R,ugm-3,126.18900,R,ugm-3,27.500,R,ugm-3 (TEOM FDMS),-0.400,R,ugm-3 (TEOM FDMS)
07-01-2020,11:00,24.600,R,ugm-3 (TEOM FDMS),35.85417,R,ugm-3,33.87907,R,ugm-3,88.85470,R,ugm-3,22.000,R,ugm-3 (TEOM FDMS),2.600,R,ugm-3 (TEOM FDMS)
07-01-2020,12:00,17.900,R,ugm-3 (TEOM FDMS),29.65432,R,ugm-3,28.72004,R,ugm-3,74.18936,R,ugm-3,14.500,R,ugm-3 (TEOM FDMS),3.400,R,ugm-3 (TEOM FDMS)
07-01-2020,13:00,14.400,R,ugm-3 (TEOM FDMS),38.28163,R,ugm-3,30.73213,R,ugm-3,89.42981,R,ugm-3,9.900,R,ugm-3 (TEOM FDMS),4.500,R,ugm-3 (TEOM FDMS)
07-01-2020,14:00,8.600,R,ugm-3 (TEOM FDMS),37.98640,R,ugm-3,36.79215,R,ugm-3,95.03714,R,ugm-3,2.600,R,ugm-3 (TEOM FDMS),6.000,R,ugm-3 (TEOM FDMS)
07-01-2020,15:00,5.000,R,ugm-3 (TEOM FDMS),37.16631,R,ugm-3,29.80633,R,ugm-3,86.79388,R,ugm-3,1.400,R,ugm-3 (TEOM FDMS),3.600,R,ugm-3 (TEOM FDMS)